This is the latest recevied weather packets stored in our database for station/object KG5WBN. If no packets are shown the sender has not sent any weather packets the latest 10 day(s).
| Time | Temp. | Humidity | Pressure | Rain* | Wind** | Luminosity | Snow |
|---|---|---|---|---|---|---|---|
| 1787432661 | 36.11° C | 42% | 1013.5 hPa | 0 mm | - | 345 W/m² | - |
| 1787432360 | 36.11° C | 42% | 1013.5 hPa | 0 mm | - | 241 W/m² | - |
| 1787432056 | 36.11° C | 42% | 1013.5 hPa | 0 mm | - | 340 W/m² | - |
| 1787431755 | 36.11° C | 42% | 1013.5 hPa | 0 mm | - | 343 W/m² | - |
| 1787431450 | 36.11° C | 42% | 1013.9 hPa | 0 mm | - | 348 W/m² | - |
| 1787431146 | 35.56° C | 42% | 1013.5 hPa | 0 mm | - | 352 W/m² | - |
| 1787430842 | 35.56° C | 42% | 1013.5 hPa | 0 mm | - | 361 W/m² | - |
| 1787430537 | 35° C | 42% | 1013.9 hPa | 0 mm | - | 359 W/m² | - |
| 1787430235 | 35.56° C | 42% | 1013.9 hPa | 0 mm | - | 362 W/m² | - |
| 1787429931 | 35.56° C | 42% | 1014.2 hPa | 0 mm | - | 356 W/m² | - |
| 1787429630 | 35° C | 42% | 1013.9 hPa | 0 mm | - | 362 W/m² | - |
| 1787429326 | 35.56° C | 42% | 1014.2 hPa | 0 mm | - | 228 W/m² | - |
| 1787429022 | 35.56° C | 42% | 1014.2 hPa | 0 mm | - | 366 W/m² | - |
| 1787428717 | 34.44° C | 42% | 1014.2 hPa | 0 mm | - | 160 W/m² | - |
| 1787428412 | 33.89° C | 43% | 1014.2 hPa | 0 mm | - | 125 W/m² | - |
| 1787428107 | 35° C | 42% | 1014.6 hPa | 0 mm | - | 372 W/m² | - |
| 1787427802 | 34.44° C | 42% | 1014.6 hPa | 0 mm | - | 310 W/m² | - |
| 1787427498 | 34.44° C | 42% | 1014.2 hPa | 0 mm | - | 381 W/m² | - |
| 1787427195 | 34.44° C | 42% | 1014.2 hPa | 0 mm | - | 285 W/m² | - |
| 1787426889 | 35.56° C | 42% | 1014.6 hPa | 0 mm | - | 125 W/m² | - |
| 1787426584 | 35° C | 42% | 1014.6 hPa | 0 mm | - | 373 W/m² | - |
| 1787426281 | 35° C | 42% | 1014.9 hPa | 0 mm | - | 349 W/m² | - |
| 1787425977 | 35° C | 42% | 1014.9 hPa | 0 mm | - | 368 W/m² | - |
| 1787425673 | 35° C | 42% | 1014.6 hPa | 0 mm | - | 344 W/m² | - |
| 1787425363 | 35.56° C | 42% | 1014.9 hPa | 0 mm | - | 380 W/m² | - |
* Rain latest hour (hover to see other rain measurements)
** Current wind speed in m/s (hover to see current wind gust speed)